Wind_Speed
10 11 11 12 13 13 12 12 13 14 14 15 15 16 16 17 17 18 18 18 17 17 16 16 15 14 14 13 13 12 11 11 9 8 8 7 7 7 6 6 6 6 6
11 12 12 13 13 13 13 13 14 15 16 16 17 18 18 19 20 20 19 19 19 18 17 17 16 16 15 14 13 13 12 12 11 10 9 8 8 7 6 6 5 5 5
13 13 13 14 14 14 14 15 16 16 17 18 19 19 20 19 20 22 22 22 21 20 19 18 17 17 16 16 15 14 13 12 12 11 10 9 8 8 7 6 5 5 5
14 15 15 15 15 15 15 16 17 17 17 18 19 20 21 21 21 22 23 23 23 22 21 20 19 19 18 17 16 15 15 14 13 12 10 10 9 8 7 7 6 4 4
15 16 16 16 17 17 17 18 18 18 19 19 20 20 21 22 22 22 23 23 23 23 22 21 20 19 19 18 18 17 16 15 14 12 12 11 10 9 8 7 6 5 3
16 17 17 18 18 18 19 20 20 20 21 22 22 22 22 22 22 22 22 23 24 24 23 22 21 21 20 20 19 18 17 16 14 13 12 11 10 9 8 8 7 5 3
16 17 17 17 18 19 19 20 21 22 23 24 25 25 25 25 24 24 23 24 24 23 24 24 23 22 22 21 20 19 18 16 15 14 13 12 11 10 9 8 7 5 4
16 15 16 16 17 18 18 20 21 22 23 24 25 26 26 26 26 26 26 26 25 25 25 24 24 23 22 22 21 20 19 17 16 14 14 13 12 10 9 9 8 6 5
15 15 15 16 17 18 18 19 20 21 22 23 24 25 25 25 26 26 26 26 26 26 26 25 24 24 24 23 22 21 20 18 17 15 15 14 13 11 10 9 9 8 7
14 15 15 16 16 17 17 18 19 19 21 22 23 25 25 25 25 26 26 25 26 26 26 25 24 24 24 24 24 23 21 20 18 17 15 15 14 12 11 10 10 9 8
13 14 14 15 16 16 17 17 19 19 19 21 22 24 25 25 25 26 26 26 26 26 26 26 25 24 25 25 24 23 22 21 21 18 17 16 15 14 13 11 11 10 10
12 13 14 14 15 16 16 17 18 19 19 19 20 22 23 24 25 26 26 26 27 27 27 26 26 26 26 25 25 25 23 22 21 20 19 17 16 15 14 12 12 11 11
12 13 13 14 15 16 17 17 18 19 19 19 20 21 22 23 24 24 25 25 26 28 27 27 28 27 26 26 25 25 24 23 21 21 20 19 17 16 15 14 13 13 12
11 12 13 14 15 16 17 18 18 19 19 19 20 20 21 21 22 23 23 24 25 26 27 28 29 29 28 27 26 26 26 25 24 21 21 21 20 19 17 15 14 14 14
11 12 13 14 15 16 17 18 19 19 19 19 19 20 20 20 21 22 22 22 23 25 26 26 28 28 28 28 28 26 25 26 25 23 22 21 21 20 19 17 16 16 15
11 12 13 14 16 17 18 18 18 19 19 19 20 20 20 20 20 20 20 20 21 23 24 25 26 27 28 28 28 28 27 27 26 25 23 22 22 22 21 19 18 17 16
11 12 13 15 16 17 18 18 18 19 19 19 20 20 20 19 19 19 18 18 20 21 22 23 24 25 27 28 28 28 27 27 26 26 24 23 22 23 22 21 20 18 18
11 12 14 15 17 18 18 19 19 19 19 19 20 20 19 19 18 17 17 17 17 19 20 21 22 24 25 26 27 28 27 27 27 27 26 24 23 23 23 22 22 20 19
11 12 14 16 17 18 18 19 19 19 19 19 19 19 19 18 17 15 15 16 16 17 18 20 21 23 24 25 26 27 27 27 26 28 28 26 25 24 24 24 23 22 21
11 12 14 15 16 17 19 19 20 19 19 18 18 18 18 17 16 14 14 14 15 15 16 18 20 21 23 25 25 26 26 26 26 26 28 27 26 25 25 25 25 24 23
11 12 14 15 16 18 18 19 19 19 18 18 18 18 17 16 15 14 13 13 14 14 14 16 18 20 21 24 24 25 26 27 27 26 27 28 27 27 26 25 25 25 24
11 12 14 15 16 17 18 19 19 19 18 18 18 18 17 16 15 14 13 12 12 12 12 13 15 18 20 22 23 25 25 26 27 27 27 27 29 28 27 26 26 26 25
11 12 13 15 16 17 18 19 19 19 18 18 18 18 17 16 15 13 12 11 10 10 11 11 12 15 17 19 22 23 24 25 25 27 27 27 28 29 28 27 26 26 26
10 12 13 14 16 17 18 18 19 19 18 18 18 18 17 16 14 13 12 10 9 8 9 10 10 11 14 16 19 22 23 24 25 26 27 27 28 28 27 27 28 28 28
10 12 13 14 15 16 17 18 18 18 18 19 18 17 16 16 14 13 11 9 7 7 7 7 8 10 11 13 16 19 22 23 24 25 26 26 26 27 28 28 28 29 29
10 11 12 13 15 16 17 17 18 18 18 18 18 17 16 16 14 13 11 9 7 6 5 5 6 8 9 11 13 16 19 20 22 23 24 23 24 26 27 27 28 30 30
Wind_Direction
290 287 288 289 288 284 275 272 268 264 260 256 251 247 245 243 241 240 238 237 237 238 239 239 238 238 236 237 239 242 245 245 249 255 262 268 274 279 286 295 308 321 324
293 290 291 290 290 286 280 276 273 270 263 260 256 252 248 244 243 242 242 241 240 240 241 240 239 239 238 239 240 243 245 247 247 252 257 262 270 274 279 286 294 310 318
293 290 289 290 289 283 279 276 279 275 269 264 259 256 252 251 247 245 244 243 242 241 241 241 240 240 240 240 242 242 244 246 247 249 253 258 265 269 272 277 283 297 312
292 290 289 288 287 283 278 276 277 276 272 266 263 263 260 256 254 249 246 245 244 243 242 241 241 240 239 241 243 244 244 244 246 248 249 254 258 263 267 268 273 285 301
291 289 288 287 287 283 279 277 278 275 273 270 267 268 267 261 259 253 249 246 244 244 243 243 241 240 239 240 242 243 243 243 244 245 243 246 251 256 262 264 264 272 285
292 289 288 287 286 283 281 280 278 275 271 270 270 270 267 263 260 256 252 247 244 244 243 242 241 239 238 239 242 243 243 242 241 241 240 241 246 251 257 259 257 260 263
292 291 291 290 289 286 283 281 281 279 277 274 271 270 269 266 262 260 257 253 249 247 246 244 242 241 238 238 240 242 242 241 239 237 236 236 241 248 251 250 246 245 243
296 296 296 295 295 291 288 287 285 282 280 277 275 274 270 267 263 261 258 255 253 249 246 244 242 241 240 238 238 239 238 239 238 234 231 231 234 241 242 242 238 237 233
301 300 299 298 298 296 294 292 289 287 284 281 278 277 274 270 266 263 260 255 254 251 247 244 243 240 239 239 238 237 237 237 237 233 229 229 231 234 236 235 231 232 227
306 307 308 307 304 301 299 298 295 292 288 284 280 277 275 274 270 267 263 258 256 254 250 245 243 240 238 238 238 238 237 236 234 231 228 228 230 230 231 230 229 228 223
315 315 316 314 312 310 308 305 303 301 296 290 285 281 278 275 272 270 268 264 259 255 252 247 243 241 239 238 237 237 236 235 232 229 225 226 228 229 228 227 226 226 221
320 321 320 318 318 317 316 313 310 307 302 298 293 287 283 279 275 271 269 265 259 255 253 250 246 242 241 239 239 237 234 234 231 227 226 226 228 228 226 226 225 223 219
327 328 327 326 323 321 319 317 314 312 309 305 301 296 290 284 279 274 269 265 261 257 254 250 247 243 241 240 239 237 234 232 230 227 226 226 227 226 224 225 225 220 218
331 332 332 330 328 327 324 321 318 315 314 311 307 303 297 290 283 276 270 265 260 258 255 252 249 245 243 240 236 234 234 231 230 228 227 226 226 225 223 223 222 218 217
336 337 336 335 333 331 328 325 321 319 316 314 311 308 302 296 288 281 273 267 260 256 254 252 248 246 244 240 235 232 232 231 230 229 228 227 226 224 223 222 221 218 216
336 338 339 338 336 334 332 329 327 324 321 318 315 312 307 301 293 285 277 268 261 256 253 250 246 244 242 238 234 232 231 229 228 227 227 227 225 224 223 222 221 218 216
337 338 338 338 337 336 334 333 331 328 325 321 318 316 312 306 298 288 280 270 263 258 253 248 244 240 239 237 235 233 230 228 227 224 222 225 226 224 223 222 220 219 218
337 337 338 338 338 337 335 333 331 329 327 324 322 320 316 311 304 294 284 275 267 259 253 249 242 238 236 235 233 231 229 228 227 223 223 224 226 224 222 221 221 220 219
335 338 338 338 338 337 337 336 334 332 330 328 326 324 321 314 308 298 289 280 272 262 254 249 243 238 235 233 232 230 230 229 228 224 223 224 226 225 223 222 223 222 221
335 338 339 340 339 339 339 339 338 336 334 332 330 328 325 319 311 305 294 285 277 267 257 250 244 240 235 232 230 229 231 229 228 225 224 224 224 223 224 223 224 223 223
335 337 339 341 342 342 342 342 341 340 338 337 336 333 331 326 318 309 301 291 282 273 261 251 246 239 235 231 229 227 229 228 228 227 225 224 222 223 225 224 224 224 224
332 336 339 342 344 345 345 345 345 343 342 341 340 338 336 333 327 321 313 301 288 276 265 255 248 241 235 231 229 228 229 227 228 227 225 224 222 224 226 227 225 225 226
330 335 339 343 345 346 346 347 347 346 345 344 343 342 340 338 333 329 323 311 296 281 270 259 251 243 236 232 229 228 227 226 225 226 228 226 224 224 226 227 227 226 227
328 333 338 343 346 348 349 349 349 349 348 347 346 345 345 344 340 337 332 321 303 288 274 260 252 247 238 233 228 226 226 225 225 225 226 227 226 226 228 229 228 229 229
325 332 338 342 346 348 350 351 351 351 352 352 351 351 351 350 348 345 341 337 324 304 282 260 251 249 244 236 229 227 227 226 224 223 225 227 228 227 229 231 229 231 230
324 331 336 341 345 348 351 353 353 353 354 356 356 356 356 355 353 353 352 347 336 318 294 264 249 247 242 236 231 228 228 228 225 224 223 224 228 228 230 232 231 231 231
Height
5865 5864 5865 5864 5864 5863 5863 5863 5863 5863 5863 5863 5864 5864 5864 5865 5865 5866 5866 5867 5867 5868 5869 5869 5870 5870 5871 5871 5872 5872 5873 5873 5873 5873 5874 5874 5874 5874 5874 5874 5873 5873 5873
5864 5863 5863 5862 5862 5861 5861 5861 5861 5861 5861 5861 5861 5861 5861 5862 5862 5863 5864 5864 5865 5866 5866 5867 5868 5869 5869 5870 5870 5871 5871 5872 5872 5872 5872 5873 5873 5873 5873 5873 5873 5872 5872
5862 5861 5860 5860 5860 5859 5859 5858 5858 5858 5858 5857 5858 5858 5858 5859 5859 5860 5861 5862 5863 5863 5864 5865 5866 5867 5867 5868 5869 5869 5869 5870 5870 5871 5871 5872 5872 5872 5872 5872 5872 5872 5872
5859 5859 5858 5857 5857 5856 5856 5855 5855 5855 5854 5854 5854 5854 5855 5855 5856 5856 5857 5858 5859 5860 5861 5862 5863 5864 5865 5866 5867 5867 5868 5868 5869 5869 5870 5870 5870 5871 5871 5872 5872 5872 5872
5857 5856 5855 5854 5854 5853 5852 5852 5852 5851 5851 5851 5851 5851 5851 5851 5852 5853 5853 5854 5856 5857 5858 5859 5860 5861 5862 5863 5864 5865 5865 5866 5867 5867 5868 5869 5869 5870 5871 5871 5871 5871 5871
5854 5853 5852 5851 5850 5850 5849 5848 5848 5848 5847 5847 5847 5847 5847 5847 5848 5848 5849 5850 5851 5853 5854 5856 5857 5858 5859 5860 5861 5862 5863 5864 5865 5866 5867 5867 5868 5869 5869 5870 5870 5871 5871
5851 5850 5848 5848 5847 5846 5846 5845 5844 5843 5843 5842 5842 5842 5842 5842 5843 5844 5845 5846 5847 5849 5850 5851 5853 5855 5856 5857 5858 5859 5861 5862 5862 5863 5865 5866 5866 5867 5868 5869 5869 5870 5871
5847 5847 5845 5844 5844 5843 5842 5841 5840 5839 5838 5837 5837 5836 5836 5837 5838 5839 5840 5841 5842 5844 5846 5847 5849 5851 5852 5854 5855 5856 5858 5859 5860 5861 5863 5864 5864 5865 5867 5868 5868 5869 5870
5844 5843 5843 5841 5840 5839 5838 5837 5836 5835 5834 5833 5832 5831 5831 5832 5832 5833 5834 5835 5837 5839 5841 5842 5844 5846 5848 5850 5851 5853 5854 5856 5858 5859 5861 5862 5863 5864 5865 5866 5867 5868 5870
5841 5840 5839 5838 5837 5836 5834 5833 5832 5830 5829 5828 5827 5826 5826 5826 5826 5827 5828 5829 5831 5833 5835 5837 5840 5842 5844 5846 5848 5849 5851 5853 5855 5857 5859 5859 5861 5862 5863 5865 5866 5867 5869
5839 5838 5837 5835 5834 5832 5831 5829 5827 5826 5824 5823 5822 5821 5820 5820 5820 5821 5822 5823 5825 5827 5829 5831 5834 5837 5839 5842 5843 5845 5847 5849 5852 5854 5856 5857 5858 5860 5861 5863 5864 5866 5867
5837 5836 5834 5833 5831 5829 5828 5826 5824 5822 5820 5819 5817 5816 5815 5815 5815 5815 5816 5817 5819 5820 5823 5825 5828 5831 5834 5836 5839 5841 5843 5845 5848 5850 5852 5854 5856 5858 5859 5861 5863 5864 5866
5836 5834 5833 5831 5829 5827 5825 5823 5821 5819 5817 5815 5813 5811 5810 5809 5809 5809 5810 5811 5812 5814 5816 5819 5822 5825 5828 5831 5834 5836 5839 5841 5844 5847 5849 5851 5853 5855 5857 5859 5861 5862 5864
5835 5833 5831 5829 5827 5825 5823 5820 5818 5816 5813 5811 5809 5807 5805 5804 5803 5803 5804 5804 5806 5807 5810 5812 5816 5819 5822 5825 5828 5831 5834 5837 5840 5843 5845 5848 5850 5852 5854 5856 5858 5860 5863
5833 5832 5830 5828 5825 5823 5820 5818 5815 5813 5810 5808 5805 5803 5801 5799 5798 5797 5798 5798 5800 5801 5803 5806 5809 5812 5816 5819 5823 5826 5829 5832 5836 5839 5842 5844 5846 5849 5852 5854 5856 5858 5861
5832 5831 5829 5826 5824 5821 5818 5816 5813 5810 5807 5804 5801 5799 5796 5795 5793 5792 5792 5793 5794 5795 5797 5799 5802 5805 5809 5813 5817 5820 5824 5827 5831 5834 5837 5840 5843 5845 5848 5851 5854 5856 5859
5831 5829 5827 5825 5822 5820 5817 5814 5811 5807 5804 5801 5798 5795 5792 5790 5788 5787 5787 5787 5788 5789 5791 5793 5796 5799 5803 5806 5810 5814 5818 5821 5826 5829 5832 5835 5839 5842 5845 5848 5851 5853 5856
5830 5828 5826 5824 5821 5818 5815 5812 5809 5805 5802 5798 5795 5792 5789 5786 5784 5783 5782 5782 5783 5784 5786 5788 5790 5793 5796 5800 5804 5808 5812 5816 5820 5824 5827 5831 5835 5838 5841 5845 5848 5850 5853
5829 5827 5825 5823 5820 5817 5814 5810 5807 5803 5800 5796 5792 5789 5786 5783 5780 5779 5778 5778 5778 5779 5780 5782 5785 5787 5790 5794 5798 5802 5806 5810 5815 5819 5823 5827 5830 5834 5838 5841 5844 5847 5850
5828 5826 5824 5822 5819 5816 5812 5809 5805 5801 5798 5794 5790 5787 5783 5780 5777 5776 5775 5774 5774 5775 5775 5777 5779 5782 5785 5788 5792 5797 5801 5805 5809 5814 5818 5822 5826 5830 5833 5837 5840 5843 5846
5827 5825 5823 5821 5818 5815 5811 5807 5804 5800 5796 5792 5788 5785 5781 5778 5775 5773 5772 5771 5770 5771 5771 5772 5774 5777 5780 5783 5787 5791 5795 5799 5803 5808 5812 5817 5821 5825 5829 5832 5836 5839 5843
5827 5824 5822 5820 5817 5813 5810 5806 5802 5798 5795 5791 5787 5783 5779 5776 5773 5771 5769 5768 5767 5767 5768 5769 5770 5772 5775 5778 5782 5786 5790 5795 5799 5803 5807 5812 5816 5820 5824 5827 5831 5835 5838
5826 5824 5821 5819 5816 5813 5809 5805 5801 5797 5794 5790 5786 5782 5778 5775 5771 5769 5767 5765 5764 5764 5764 5765 5766 5768 5770 5773 5777 5781 5785 5790 5793 5798 5802 5807 5811 5815 5818 5822 5826 5830 5834
5825 5823 5821 5818 5815 5812 5808 5805 5801 5797 5793 5789 5785 5781 5777 5773 5770 5767 5765 5763 5762 5761 5762 5762 5763 5765 5767 5769 5772 5776 5780 5784 5788 5793 5797 5801 5805 5809 5813 5817 5821 5825 5829
5824 5822 5820 5817 5814 5811 5808 5804 5800 5796 5792 5788 5784 5780 5776 5773 5770 5766 5763 5761 5760 5759 5760 5760 5761 5762 5764 5766 5769 5772 5776 5780 5783 5788 5792 5796 5800 5804 5808 5812 5815 5819 5822
5823 5821 5819 5816 5814 5811 5807 5804 5800 5796 5792 5788 5784 5780 5776 5773 5769 5766 5763 5761 5759 5758 5758 5758 5759 5760 5762 5763 5766 5769 5772 5776 5779 5783 5787 5791 5795 5799 5803 5806 5810 5813 5817